Weather History for Visalia, CA

Change the Weather History Date:

Tuesday, April 15, 2014

  Actual Average Record
Temperature  
Mean Temperature 70 °F -  
Max Temperature 86 °F 73 °F 97 °F (1947)
Min Temperature 53 °F 48 °F 35 °F (2009)
Cooling Degree Days 4    
Growing Degree Days 20 (Base 50)    
Moisture  
Dew Point 44 °F    
Average Humidity 44    
Maximum Humidity 77    
Minimum Humidity 14    
Precipitation  
Precipitation 0.00 in - - ()
Sea Level Pressure  
Sea Level Pressure 29.91 in    
Wind  
Wind Speed 4 mph (NW)    
Max Wind Speed 16 mph    
Max Gust Speed 20 mph    
Visibility 10 miles    
Events      
Averages and records for this station are not official NWS values.
T = Trace of Precipitation, MM = Missing Value Source: NWS Daily Summary

Daily Weather History Graph

Daily Weather History Graph

Search for Another Location

Airport:

Trip Planner

Search our weather history database for the weather conditions in past years. The results will help you decide how hot, cold, wet, or windy it might be!

Date:

Astronomy

Apr. 15, 2014 Rise Set
Actual Time 6:24 AM PDT 7:31 PM PDT
Civil Twilight 5:57 AM PDT 7:58 PM PDT
Nautical Twilight 5:25 AM PDT 8:29 PM PDT
Astronomical Twilight 4:53 AM PDT 9:02 PM PDT
Moon 8:16 PM PDT (4/15) 6:35 AM PDT (4/15)
Length of Visible Light 14h 00m
Length of Day
13h 07m
Full, 100% of the Moon is Illuminated
Apr 15
Full
Apr 22
Last Quarter
Apr 28
New
May 6
First Quarter
May 14
Full

Hourly Weather History & Observations

Time (PDT) Temp. Dew Point Humidity Pressure Visibility Wind Dir Wind Speed Gust Speed Precip Events Conditions
12:15 AM 64.4 °F 48.2 °F 56% 30.01 in 10.0 mi WNW 4.6 mph - N/A   Clear
12:35 AM 64.4 °F 46.4 °F 52% 30.01 in 10.0 mi WNW 4.6 mph - N/A   Clear
12:55 AM 64.4 °F 46.4 °F 52% 30.00 in 10.0 mi NNW 4.6 mph - N/A   Clear
1:15 AM 64.4 °F 46.4 °F 52% 30.00 in 10.0 mi NW 6.9 mph - N/A   Clear
1:35 AM 62.6 °F 46.4 °F 55% 30.00 in 10.0 mi NNW 4.6 mph - N/A   Clear
1:55 AM 60.8 °F 46.4 °F 59% 29.99 in 10.0 mi Calm Calm - N/A   Clear
2:15 AM 62.6 °F 46.4 °F 55% 29.99 in 10.0 mi Calm Calm - N/A   Clear
2:35 AM 62.6 °F 46.4 °F 55% 29.98 in 10.0 mi Calm Calm - N/A   Clear
2:55 AM 62.6 °F 46.4 °F 55% 29.98 in 10.0 mi NNW 3.5 mph - N/A   Clear
3:15 AM 62.6 °F 46.4 °F 55% 29.98 in 10.0 mi Calm Calm - N/A   Clear
3:35 AM 60.8 °F 46.4 °F 59% 29.98 in 10.0 mi Calm Calm - N/A   Clear
3:55 AM 59.0 °F 46.4 °F 63% 29.97 in 10.0 mi Calm Calm - N/A   Clear
4:15 AM 57.2 °F 46.4 °F 67% 29.97 in 10.0 mi SSE 3.5 mph - N/A   Clear
4:35 AM 57.2 °F 48.2 °F 72% 29.97 in 10.0 mi Calm Calm - N/A   Clear
4:55 AM 57.2 °F 46.4 °F 67% 29.96 in 10.0 mi Calm Calm - N/A   Clear
5:15 AM 57.2 °F 46.4 °F 67% 29.95 in 10.0 mi Calm Calm - N/A   Clear
5:35 AM 57.2 °F 46.4 °F 67% 29.95 in 10.0 mi Calm Calm - N/A   Clear
5:55 AM 55.4 °F 46.4 °F 72% 29.95 in 10.0 mi East 3.5 mph - N/A   Clear
6:15 AM 53.6 °F 44.6 °F 72% 29.95 in 10.0 mi Calm Calm - N/A   Clear
6:35 AM 53.6 °F 46.4 °F 77% 29.96 in 10.0 mi SSW 3.5 mph - N/A   Clear
6:55 AM 55.4 °F 46.4 °F 72% 29.97 in 10.0 mi Calm Calm - N/A   Clear
7:15 AM 55.4 °F 46.4 °F 72% 29.97 in 10.0 mi Calm Calm - N/A   Clear
7:35 AM 55.4 °F 48.2 °F 77% 29.97 in 10.0 mi East 4.6 mph - N/A   Clear
7:55 AM 57.2 °F 48.2 °F 72% 29.98 in 9.0 mi Calm Calm - N/A   Clear
8:15 AM 59.0 °F 48.2 °F 67% 29.98 in 8.0 mi ESE 5.8 mph - N/A   Clear
8:35 AM 60.8 °F 48.2 °F 63% 29.98 in 9.0 mi SSE 3.5 mph - N/A   Clear
8:55 AM 62.6 °F 50.0 °F 63% 29.98 in 10.0 mi SSE 4.6 mph - N/A   Clear
9:15 AM 66.2 °F 50.0 °F 56% 29.98 in 10.0 mi ESE 8.1 mph - N/A   Clear
9:55 AM 68.0 °F 50.0 °F 52% 29.99 in 10.0 mi SSE 3.5 mph - N/A   Clear
10:15 AM 69.8 °F 50.0 °F 49% 29.99 in 10.0 mi Calm Calm - N/A   Clear
10:55 AM 73.4 °F 51.8 °F 47% 29.98 in 10.0 mi Calm Calm - N/A   Clear
11:15 AM 73.4 °F 51.8 °F 47% 29.98 in 10.0 mi ESE 3.5 mph - N/A   Clear
11:35 AM 75.2 °F 51.8 °F 44% 29.97 in 10.0 mi Calm Calm - N/A   Clear
11:55 AM 75.2 °F 51.8 °F 44% 29.96 in 10.0 mi Calm Calm - N/A   Clear
12:15 PM 78.8 °F 51.8 °F 39% 29.95 in 10.0 mi West 4.6 mph - N/A   Clear
12:35 PM 80.6 °F 46.4 °F 30% 29.93 in 10.0 mi Calm Calm - N/A   Clear
12:55 PM 82.4 °F 48.2 °F 30% 29.92 in 10.0 mi Calm Calm - N/A   Clear
1:15 PM 82.4 °F 50.0 °F 32% 29.90 in 10.0 mi Calm Calm - N/A   Clear
1:35 PM 82.4 °F 48.2 °F 30% 29.89 in 10.0 mi WSW 8.1 mph - N/A   Clear
1:55 PM 84.2 °F 50.0 °F 30% 29.88 in 10.0 mi WNW 6.9 mph - N/A   Clear
2:15 PM 84.2 °F 48.2 °F 29% 29.87 in 10.0 mi West 6.9 mph - N/A   Clear
2:35 PM 84.2 °F 46.4 °F 27% 29.87 in 10.0 mi West 8.1 mph - N/A   Clear
2:55 PM 84.2 °F 50.0 °F 30% 29.87 in 10.0 mi WNW 6.9 mph - N/A   Clear
3:15 PM 84.2 °F 50.0 °F 30% 29.86 in 10.0 mi West 8.1 mph - N/A   Clear
3:35 PM 84.2 °F 46.4 °F 27% 29.85 in 10.0 mi West 6.9 mph - N/A   Clear
3:55 PM 86.0 °F 46.4 °F 25% 29.84 in 10.0 mi West 11.5 mph - N/A   Clear
4:15 PM 86.0 °F 44.6 °F 23% 29.83 in 10.0 mi WNW 12.7 mph - N/A   Clear
4:35 PM 84.2 °F 44.6 °F 25% 29.82 in 10.0 mi WNW 13.8 mph 18.4 mph N/A   Clear
4:55 PM 86.0 °F 42.8 °F 22% 29.82 in 10.0 mi NW 9.2 mph - N/A   Clear
5:15 PM 86.0 °F 42.8 °F 22% 29.81 in 10.0 mi NW 16.1 mph - N/A   Clear
5:35 PM 86.0 °F 33.8 °F 15% 29.81 in 10.0 mi NW 11.5 mph 19.6 mph N/A   Clear
5:55 PM 84.2 °F 33.8 °F 16% 29.80 in 10.0 mi NW 10.4 mph - N/A   Clear
6:15 PM 84.2 °F 32.0 °F 15% 29.80 in 10.0 mi NW 11.5 mph - N/A   Clear
6:35 PM 84.2 °F 30.2 °F 14% 29.80 in 10.0 mi WNW 9.2 mph - N/A   Clear
6:55 PM 80.6 °F 33.8 °F 18% 29.79 in 10.0 mi NW 8.1 mph - N/A   Clear
7:15 PM 77.0 °F 35.6 °F 22% 29.80 in 10.0 mi WNW 5.8 mph - N/A   Clear
7:35 PM 73.4 °F 37.4 °F 27% 29.80 in 10.0 mi WNW 5.8 mph - N/A   Clear
7:55 PM 71.6 °F 39.2 °F 31% 29.80 in 10.0 mi WNW 6.9 mph - N/A   Clear
8:15 PM 69.8 °F 37.4 °F 31% 29.80 in 10.0 mi NW 6.9 mph - N/A   Clear
8:35 PM 68.0 °F 37.4 °F 33% 29.82 in 10.0 mi NW 6.9 mph - N/A   Clear
8:55 PM 73.4 °F 35.6 °F 25% 29.83 in 10.0 mi NNW 10.4 mph - N/A   Clear
9:15 PM 73.4 °F 33.8 °F 23% 29.83 in 10.0 mi NNW 10.4 mph - N/A   Clear
9:35 PM 71.6 °F 33.8 °F 25% 29.83 in 10.0 mi NNW 9.2 mph - N/A   Clear
9:55 PM 69.8 °F 35.6 °F 28% 29.83 in 10.0 mi NNW 9.2 mph - N/A   Clear
10:15 PM 68.0 °F 37.4 °F 33% 29.84 in 10.0 mi NNW 9.2 mph - N/A   Clear
10:35 PM 68.0 °F 37.4 °F 33% 29.83 in 10.0 mi North 6.9 mph - N/A   Clear
10:55 PM 66.2 °F 39.2 °F 37% 29.84 in 10.0 mi North 6.9 mph - N/A   Clear
11:15 PM 66.2 °F 39.2 °F 37% 29.84 in 10.0 mi NNE 6.9 mph - N/A   Clear
11:35 PM 64.4 °F 39.2 °F 40% 29.84 in 10.0 mi North 5.8 mph - N/A   Clear
11:55 PM 66.2 °F 41.0 °F 40% 29.84 in 10.0 mi NNW 9.2 mph - N/A   Clear